Flag for Namibia Weather past 2 weeks in Swakopmund, Namibia

Now
61 °F

Sunny.


Feels Like: 61 °F
Forecast: 60 / 71 °F
Wind: 5 mph from Southwest

Location: Walvis Bay

Current Time: Oct 23, 2014 at 12:21:36 PM

Latest Report: Oct 23, 2014 at 11:00 AM


Visibility: 10 mi

Pressure: 30.07 "Hg

Humidity: 72%

Dew point: 52 °F

Location of SwakopmundLocation

Historic Weather in Swakopmund — Graph

°F

Swakopmund temperature yesterday

Maximum temperature yesterday: 70 °F (at 3:00 PM)
Minimum temperature yesterday: 50 °F (at 2:00 AM)
Average temperature yesterday: 56 °F

Past Weeks' High & Low Weather Summary

 TemperatureHumidityPressure
High72 °F (Oct 9, 2:00 PM)94% (Oct 9, 8:00 AM)32.01 "Hg (Oct 9, 8:00 AM)
Low45 °F (Oct 10, 4:00 AM)40% (Oct 9, 4:00 PM)29.92 "Hg (Oct 17, 3:00 PM)
Average58 °F73%30.03 "Hg
* Reported Oct 8 11:00 AM — Oct 23 11:00 AM, Swakopmund, Weather by CustomWeather, © 2014

Note: Actual official high and low records may vary slightly from our data, if they occured in-between our weather recording intervals... More about our weather records

Advertising

Swakopmund weather history for previous 24 hours

 ConditionsComfort  
Time TempWeatherWind HumidityBarometerVisibility
11:00 AM
Oct 23
61 °FSunny.5 mph72%30.07 "Hg10 mi
10:00 AM57 °FCool.5 mph82%30.07 "HgN/A
9:00 AM54 °FLow clouds.1 mph94%30.07 "HgN/A
8:00 AM54 °FLow clouds.2 mph88%30.07 "HgN/A
7:00 AM54 °FLow clouds.2 mph88%30.04 "HgN/A
6:00 AM54 °FLow clouds.3 mph88%30.04 "HgN/A
5:00 AM54 °FCool.7 mph88%30.01 "HgN/A
4:00 AM55 °FCool.9 mph88%30.01 "HgN/A
3:00 AM55 °FCool.10 mph88%30.04 "HgN/A
2:00 AM55 °FCool.7 mph88%30.04 "HgN/A
1:00 AM54 °FCool.7 mph88%30.07 "HgN/A
12:00 AM52 °FCool.8 mph88%30.07 "HgN/A
11:00 PM
Oct 22
54 °FCool.5 mph88%30.07 "HgN/A
10:00 PM55 °FCool.2 mph82%30.07 "HgN/A
9:00 PM55 °FCool.5 mph82%30.04 "HgN/A
8:00 PM57 °FCool.13 mph82%30.01 "HgN/A
7:00 PM59 °FCool.15 mph77%30.01 "HgN/A
4:00 PM64 °FPartly sunny.21 mph64%29.98 "HgN/A
3:00 PM70 °FMild.20 mph53%29.98 "HgN/A
12:00 PM64 °FPartly sunny.7 mph60%30.04 "HgN/A
Weather by CustomWeather, © 2014

See weather overviewHow to use our weather pages